Back to catalog

SL-12 DEB

LostHEO
NORAD 44561·DEBRIS·🇷🇺 Russia

Launched Sep 2, 2010 from Baikonur Cosmodrome

Loading…

Next Passes (next 24 hours)

TLE

StaleSource: Space-Track

Epoch: Oct 19, 2019, 11:01 UTC

1 44561U 10041AG  19292.45968067  .00012386  00000-0  17915-1 0  9998
2 44561  65.4875 271.3592 5779252  34.4603 352.1424  4.22359741  2249

Track SL-12 DEB in real time with AllMySat

Download on the App Store